カタログに戻る

STARLINK-30498

運用中通信VLEO
NORAD 57971·PAYLOAD·🇺🇸 United States

打ち上げ Sep 30, 2023 から Cape Canaveral Space Force Station

Loading…

次のパス (今後24時間)

TLE

最新Source: CelesTrak SupGP

元期: Sep 14, 2026, 21:33 UTC

1 57971C 23151H   26257.89840278 -.00078387  00000+0 -28388-2 0  2571
2 57971  43.0033 347.4099 0001454 268.5879  97.5274 15.27622345    11

AllMySatでSTARLINK-30498をリアルタイム追跡

Download on the App Store